Tracking 30402 objects as of 12-May-2025
HD Live streaming from Space Station
objects crossing your sky now

BREEZE-M DEB

Track BREEZE-M DEB now!
10-day predictions


NORAD ID: 39174
Int'l Code: 2013-026C
Perigee: 388.9 km
Apogee: 14,563.2 km
Inclination: 50.8 °
Period: 270.3 minutes
Semi major axis: 13847 km
RCS: Unknown
Launch date: June 3, 2013
Source: Commonwealth of Independent States (former USSR) (CIS)
Launch site: TYURATAM MISSILE AND SPACE COMPLEX (TTMTR)

Note: This is SATELLITE DEBRIS
Your satellite tracking list
Your tracking list is empty




NASA's NSSDC Master Catalog

Two Line Element Set (TLE):
1 39174U 13026C   25131.49220238  .00000599  00000-0  40021-3 0  9991
2 39174  50.7796 331.0877 5118150 270.9848  33.3996  5.32803984229477
Source of the keplerian elements: AFSPC